Regional Weather Roundup
Issued by NWS Newport/Morehead, NC

Current Version | Previous Version | Graphics & Text | Print | Product List | Glossary On
Versions: 1 2 3 4 5 6 7 8 9 10 11 12 13 14 15 16 17 18 19 20 21 22 23 24 25 26 27 28 29 30 31 32 33 34 35 36 37 38 39 40 41 42 43 44 45 46 47 48 49 50
000 ASUS42 KMHX 212113 RWRMHX WEATHER ROUNDUP FOR EASTERN NORTH CAROLINA NATIONAL WEATHER SERVICE NEWPORT/MOREHEAD CITY NC 500 PM EDT THU SEP 21 2017 NOTE: "FAIR" INDICATES FEW OR NO CLOUDS BELOW 12,000 FEET WITH NO SIGNIFICANT WEATHER AND/OR OBSTRUCTIONS TO VISIBILITY NCZ015>017-031-032-045>047-102-103-212200- NORTH COAST CITY SKY/WX TMP DP RH WIND PRES REMARKS EDENTON SUNNY 87 67 50 CALM 29.99S ELIZABETH CITY SUNNY 82 70 66 E9 29.99R KITTY HAWK CLEAR 76 66 70 CALM 29.99S MANTEO SUNNY 79 67 66 E12 30.00S $$ NCZ045>047-081-094-103-104-212200- CENTRAL COAST CITY SKY/WX TMP DP RH WIND PRES REMARKS FRISCO SUNNY 84 70 62 VRB5 29.99S $$ NCZ095-097-098-100-101-212200- SOUTHERN COAST CITY SKY/WX TMP DP RH WIND PRES REMARKS BEAUFORT CLOUDY 78 71 79 NW9 29.98F CEDAR ISLAND NOT AVBL JACKSONVILLE CLOUDY 71 69 93 SW3 29.97F THUNDER FOG PINEY ISLAND N/A N/A N/A N/A W6 29.98F WILMINGTON PTSUNNY 83 72 69 CALM 29.98S $$ NCZ011>013-027>030-043-044-078>080-089-090>093-098-212200- COASTAL PLAIN CITY SKY/WX TMP DP RH WIND PRES REMARKS AHOSKIE N/A 83 64 52 N3 30.00S CLINTON CLOUDY 79 69 72 E5 29.99S ELIZABETHTOWN NOT AVBL GOLDSBORO CLOUDY 75 75 99 NW5 29.98S GREENVILLE MOSUNNY 86 68 54 N3 30.00F HAVELOCK CLOUDY 73 72 96 CALM 29.99S KENANSVILLE NOT AVBL KINSTON CLOUDY 72 70 94 SW3 30.01S NEW BERN CLOUDY 74 69 85 CALM 29.99F RICHLANDS CLOUDY 74 66 76 NW5 30.02R ROCKY MOUNT CLOUDY 77 71 82 W3 30.00F WASHINGTON SUNNY 84 66 53 CALM 29.98F WHITEVILLE MOSUNNY 87 68 53 CALM 29.95F $$ AMZ130-135-150-152-154-156-158-170-250-252-270-ANZ085-086-088-633-658-670-212200- MARINE OBSERVATIONS STATION/POSITION TIME TEMP WIND PRES WAVE SWELL AIR SEA DIR/SP/G HT/PER HT/PER (UTC) (F) (DEG/KT/KT) (MB) (FT/S) (FT/S) CHESAPEAKE LIGHT NOT AVBL 64 E VA BEACH 2050 72 72 10/ 10/ 10 1015.9 6/ 9 7/ 9 DUCK 2036 76 77 60/ 10/ 11 1015.4 2 E DUCK 2030 76 N/A 4/11 2/11 OREGON INLET 2036 77 78 30/ 7/ 11 1015.6 13E OREGON INLT 2048 76 N/A 5/10 5/10 HATTERAS CG 2036 81 78 70/ 5/ 7 1015.4 DIAMOND BUOY 2050 78 79 30/ 4/ 6 1015.4 5/10 5/10 CAPE LOOKOUT 2100 80 150/ 4/ 4 1014.6 BEAUFORT LAB 2036 78 77 300/ 3/ 6 1014.9 30 SE NEW RVR IN 2008 81 130/ 4/ 6 1015.4 30 SE NEW RVR IN NOT AVBL 27 SE WRIGHTSVLE 2008 81 81 150/ 6/ 8 1015.3 5 SE WRIGHTSVLE 2008 80 80 190/ 12/ 16 1015.2 225 S CAPE HAT 2050 80 85 CALM / 2 1015.2 5/10 5/10 41 SE CHARLESTON 2050 81 81 170/ 4/ 6 1014.5 3/11 3/11 $$

USA.gov is the U.S. government's official web portal to all federal, state and local government web resources and services.